Simultaneous Nadir Overpasses (SNOs) Predictions

Prediction of SNOs between GOES-15 and NPP Satellite Orbit:

Table of predicted SNOs for the next 14.0 days since TLE Epoch: 12/6/2019
Index Date Time (GOES-15) GOES-15 Lat,Lon NPP Lat,Lon Distance(km) Time Diff (sec)
1 12/06/2019 21:52:21 -0.01,-128.22 0.33,-126.58 186.32 80
2 12/08/2019 10:11:29 -0.01,-128.22 0.81,-131.85 414.78 80
3 12/09/2019 09:55:23 0.00,-128.19 -0.19,-127.32 99.20 80
4 12/11/2019 21:55:53 -0.00,-128.08 -0.01,-128.08 1.07 80
5 12/14/2019 09:58:55 -0.01,-128.03 0.15,-128.82 89.93 80
6 12/15/2019 09:42:49 0.00,-127.99 -0.85,-124.29 422.90 80
7 12/16/2019 22:02:05 0.02,-127.90 -0.34,-129.59 191.97 80
8 12/17/2019 21:45:59 0.01,-127.86 0.66,-125.05 320.63 80
9 12/19/2019 10:05:06 -0.03,-127.83 0.54,-130.31 282.85 80
10 12/20/2019 09:49:00 -0.02,-127.79 -0.46,-125.78 229.57 80




NCC Satellite Simultaneous Nadir Overpasses (SNOs) Prediction Service
